Regional Weather Roundup
Issued by NWS

Home | Current Version | Previous Version | Graphics & Text | Print | Product List | Glossary On
Versions: 1 2 3 4 5 6 7 8 9 10 11 12 13 14 15 16 17 18 19 20 21 22 23 24 25 26 27 28 29 30 31 32 33 34 35 36 37 38 39 40 41 42 43 44 45 46 47 48 49 50
000
ASUS43 KOAX 170510
RWRNE

WEATHER ROUNDUP FOR NEBRASKA
NATIONAL WEATHER SERVICE OMAHA NE
1100 PM CST TUE JAN 16 2018

NOTES: SATELLITE DATA IS BEING USED TO AUGMENT CLOUD COVER ABOVE
       12000 FEET.
       "FAIR" INDICATES FEW OR NO CLOUDS BELOW 12,000 FEET WITH NO
       SIGNIFICANT WEATHER AND/OR OBSTRUCTIONS TO VISIBILITY.


NEZ001>004-019>022-054>056-170600-
NEBRASKA PANHANDLE

CITY           SKY/WX    TMP DP  RH WIND       PRES   REMARKS
SCOTTSBLUFF    CLEAR     12   3  67 E13       30.25F WCI  -3
ALLIANCE       CLEAR      7   1  76 SE6       30.26S WCI  -3
CHADRON        CLEAR      8   2  76 SW3       30.25F
GORDON         FAIR      17   3  54 W5        30.25F WCI  10
KIMBALL        CLEAR     13   5  71 SW7       30.25S WCI   2
SIDNEY         CLEAR     12   2  64 SW9       30.27F WCI   0
$$

NEZ057>060-069>072-079>082-170600-
SOUTHWEST NEBRASKA

CITY           SKY/WX    TMP DP  RH WIND       PRES   REMARKS
NORTH PLATTE   CLEAR      9  -1  64 S5        30.42F WCI   1
IMPERIAL       CLEAR      6  -1  73 SE8       30.38F WCI  -7
LEXINGTON      CLEAR      9   1  71 S9        30.48F WCI  -4
MCCOOK         CLEAR      6  -1  73 S9        30.48S WCI  -8
OGALLALA       CLEAR     14   3  62 SW6       30.37F WCI   5
$$

NEZ005>010-023>029-035>040-094-170600-
NORTH CENTRAL NEBRASKA

CITY           SKY/WX    TMP DP  RH WIND       PRES   REMARKS
VALENTINE      CLEAR     11   2  67 SW8       30.33F WCI  -1
AINSWORTH      CLEAR     10   1  67 SW15      30.36F WCI  -6
BROKEN BOW     CLEAR      3  -5  69 S3        30.45F
O`NEILL        CLEAR      7   1  75 S8        30.44F WCI  -6
ORD            CLEAR      5  -1  76 S6        30.48F WCI  -6
THEDFORD       CLEAR     12   1  61 S6        30.37F WCI   2
$$

NEZ041-046>049-061>064-073>077-083>087-170600-
SOUTH CENTRAL NEBRASKA

CITY           SKY/WX    TMP DP  RH WIND       PRES   REMARKS
GRAND ISLAND   CLOUDY     4   0  83 S9        30.55F WCI -10
AURORA         CLOUDY     5  -1  75 S6        30.56F WCI  -6
HASTINGS       CLOUDY     4  -2  76 S7        30.56F WCI  -8
HEBRON         CLOUDY    -3  -7  83 CALM      30.63F
HOLDREGE       CLOUDY     6   1  77 S7        30.51F WCI  -5
KEARNEY        CLOUDY     0  -5  79 SW6       30.53F WCI -12
YORK           CLOUDY     1   0  92 CALM      30.58F
$$

NEZ011>018-030>034-042>045-170600-
NORTHEAST NEBRASKA

CITY           SKY/WX    TMP DP  RH WIND       PRES   REMARKS
NORFOLK        CLOUDY     5   0  79 S9        30.54F WCI  -9
ALBION         CLOUDY     5   0  78 S7        30.53F WCI  -7
BLAIR          CLOUDY     2  -1  84 S6        30.60F WCI  -9
COLUMBUS       CLOUDY     5   0  79 SW7       30.59F WCI  -7
FREMONT        CLEAR      2  -2  84 S3        30.61F
TEKAMAH        CLOUDY    -5 -10  79 S7        30.64F WCI -19
WAYNE          CLOUDY     1  -4  80 S5        30.56S WCI  -9
$$

NEZ050>053-065>068-078-088>093-170600-
SOUTHEAST NEBRASKA

CITY           SKY/WX    TMP DP  RH WIND       PRES   REMARKS
LINCOLN        CLOUDY     3  -1  83 CALM      30.65F
OMAHA EPPLEY   CLOUDY     2  -2  83 SE8       30.65F WCI -12
BEATRICE       CLOUDY     3   0  85 CALM      30.64F
FALLS CITY     CLOUDY    -1  -6  79 CALM      30.68F
NEBRASKA CITY  CLOUDY     3   1  91 SW6       30.65F WCI  -8
PLATTSMOUTH    CLOUDY     4   1  86 SW3       30.64F
$$

NEZ044-045-051>053-067-170600-
OMAHA AREA

CITY           SKY/WX    TMP DP  RH WIND       PRES   REMARKS
OMAHA EPPLEY   CLOUDY     2  -2  83 SE8       30.65F WCI -12
BLAIR          CLOUDY     2  -1  84 S6        30.60F WCI  -9
FREMONT        CLEAR      2  -2  84 S3        30.61F
MILLARD        CLOUDY     4   1  85 CALM      30.65F
OFFUTT AFB     CLOUDY    -6 -10  81 CALM      30.65F
PLATTSMOUTH    CLOUDY     4   1  86 SW3       30.64F
WAHOO          FAIR      -1  -5  82 CALM      30.63S
$$




USA.gov is the U.S. government's official web portal to all federal, state and local government web resources and services.